Location: Kailua
(21.4020°N, 157.7390°W)
Time: 22:20:31
(UTC-10:00)

Cosmos 2297 Rocket - Visible Passes

Search period start: 25 May 2018 00:00
Search period end: 04 June 2018 00:00
Orbit: 839 x 844 km, 71.0° (Epoch: 25 May)

Date Brightness Start Highest point End Pass type
(mag) Time Alt. Az. Time Alt. Az. Time Alt. Az.
26 May 4.9 22:49:41 11° NNE 22:49:41 11° NNE 22:49:52 10° NNE visible
27 May 4.7 22:34:16 13° NNE 22:34:16 13° NNE 22:34:46 10° NNE visible
28 May 4.5 22:18:45 15° NNE 22:18:45 15° NNE 22:19:39 10° NNE visible
29 May 4.2 22:03:08 18° NNE 22:03:08 18° NNE 22:04:31 10° NNE visible
30 May 3.9 21:47:21 23° NNE 21:47:21 23° NNE 21:49:23 10° NNE visible
30 May 5.0 23:29:04 11° NW 23:29:04 11° NW 23:29:54 10° NW visible
31 May 3.4 21:31:21 30° NE 21:31:21 30° NE 21:34:15 10° NNE visible
31 May 4.9 23:13:04 12° WNW 23:13:04 12° WNW 23:15:13 10° NW visible
01 Jun 2.8 21:15:06 42° ENE 21:15:06 42° ENE 21:19:07 10° NNE visible
01 Jun 4.8 22:56:47 13° WNW 22:57:50 13° WNW 23:00:28 10° NW visible
02 Jun 2.3 20:58:24 49° ESE 20:58:33 49° ESE 21:03:58 10° NNE visible
02 Jun 4.8 22:40:02 11° W 22:42:42 14° WNW 22:45:39 10° NNW visible
03 Jun 2.4 20:40:54 28° SSE 20:43:27 46° ESE 20:48:49 10° NNE visible
03 Jun 4.8 22:24:21 10° W 22:27:34 15° WNW 22:30:47 10° NNW visible
